When you browse on this site, cookies collect data to enhance your experience and personalize the content and advertising you see.
Visit our Privacy Policy to learn more. By continuing to use the site, you agree to this use of cookies and data.
  • In France
  • List of Countries
  • For 7 days
  • Water Temperature
  • Satellite Maps
  • Weather Map
  • Weather Widgets
  • user-avatar
    Login

    Hourly Weather Balchik

    Today, 22 March, Friday

    Time Temperature Precipitation Wind Pressure Humidity
    00:00 +7°C° 0 mm 1 mps 750 mmHg 66%
    01:00 +5°C° 0 mm 2 mps 750 mmHg 67%
    02:00 +5°C° 0 mm 2 mps 750 mmHg 68%
    03:00 +5°C° 0 mm 2 mps 749 mmHg 70%
    04:00 +4°C° 0 mm 3 mps 749 mmHg 73%
    05:00 +4°C° 0 mm 3 mps 749 mmHg 76%
    06:00 +5°C° 0 mm 3 mps 749 mmHg 75%
    07:00 +7°C° 0 mm 3 mps 749 mmHg 74%
    08:00 +8°C° 0 mm 3 mps 749 mmHg 74%
    09:00 +9°C° 0 mm 3 mps 749 mmHg 66%
    10:00 +11°C° 0 mm 3 mps 749 mmHg 58%
    11:00 +12°C° 0 mm 3 mps 749 mmHg 51%
    12:00 +13°C° 0 mm 4 mps 749 mmHg 49%
    13:00 +14°C° 0 mm 4 mps 748 mmHg 47%
    14:00 +14°C° 0 mm 4 mps 748 mmHg 45%
    15:00 +14°C° 0 mm 3 mps 748 mmHg 47%
    16:00 +13°C° 0 mm 3 mps 747 mmHg 49%
    17:00 +13°C° 0 mm 3 mps 747 mmHg 50%
    18:00 +13°C° 0 mm 2 mps 747 mmHg 54%
    19:00 +10°C° 0 mm 2 mps 747 mmHg 58%
    20:00 +10°C° 0 mm 1 mps 746 mmHg 62%
    21:00 +9°C° 0 mm 2 mps 746 mmHg 62%
    22:00 +9°C° 0 mm 2 mps 746 mmHg 61%
    23:00 +9°C° 0 mm 2 mps 746 mmHg 61%

    Tomorrow, 23 March, Saturday

    Time Temperature Precipitation Wind Pressure Humidity
    00:00 +9°C° 0 mm 3 mps 746 mmHg 64%
    01:00 +8°C° 0 mm 4 mps 746 mmHg 68%
    02:00 +8°C° 0 mm 4 mps 746 mmHg 72%
    03:00 +8°C° 0 mm 4 mps 746 mmHg 74%
    04:00 +7°C° 0 mm 4 mps 746 mmHg 75%
    05:00 +6°C° 0 mm 4 mps 746 mmHg 77%
    06:00 +7°C° 0 mm 4 mps 746 mmHg 72%
    07:00 +7°C° 0 mm 4 mps 746 mmHg 66%
    08:00 +8°C° 0 mm 4 mps 746 mmHg 60%
    09:00 +8°C° 0 mm 4 mps 746 mmHg 58%
    10:00 +8°C° 0 mm 4 mps 746 mmHg 56%
    11:00 +10°C° 0 mm 4 mps 746 mmHg 54%
    12:00 +9°C° 0 mm 5 mps 746 mmHg 51%
    13:00 +9°C° 0 mm 5 mps 746 mmHg 49%
    14:00 +9°C° 0 mm 5 mps 745 mmHg 46%
    15:00 +9°C° 0 mm 5 mps 745 mmHg 43%
    16:00 +9°C° 0 mm 5 mps 745 mmHg 41%
    17:00 +9°C° 0 mm 5 mps 745 mmHg 38%
    18:00 +8°C° 0 mm 4 mps 745 mmHg 42%
    19:00 +7°C° 0 mm 3 mps 745 mmHg 45%
    20:00 +6°C° 0 mm 2 mps 745 mmHg 49%
    21:00 +5°C° 0 mm 2 mps 745 mmHg 45%
    22:00 +5°C° 0 mm 2 mps 745 mmHg 42%
    23:00 +4°C° 0 mm 2 mps 745 mmHg 38%

    Day after tomorrow, 24 March, Sunday

    Time Temperature Precipitation Wind Pressure Humidity
    00:00 +4°C° 0 mm 2 mps 745 mmHg 39%
    01:00 +4°C° 0 mm 2 mps 745 mmHg 41%
    02:00 +3°C° 0 mm 2 mps 745 mmHg 42%
    03:00 +3°C° 0 mm 2 mps 744 mmHg 44%
    04:00 +2°C° 0 mm 2 mps 744 mmHg 46%
    05:00 +2°C° 0 mm 2 mps 744 mmHg 49%
    06:00 +3°C° 0 mm 2 mps 744 mmHg 49%
    07:00 +4°C° 0 mm 2 mps 745 mmHg 49%
    08:00 +5°C° 0 mm 2 mps 745 mmHg 50%
    09:00 +5°C° 0 mm 3 mps 745 mmHg 46%
    10:00 +8°C° 0 mm 3 mps 745 mmHg 42%
    11:00 +9°C° 0 mm 3 mps 745 mmHg 39%
    12:00 +10°C° 0 mm 3 mps 745 mmHg 37%
    13:00 +11°C° 0 mm 3 mps 745 mmHg 35%
    14:00 +12°C° 0 mm 3 mps 744 mmHg 34%
    15:00 +12°C° 0 mm 3 mps 744 mmHg 35%
    16:00 +12°C° 0 mm 2 mps 744 mmHg 37%
    17:00 +12°C° 0 mm 2 mps 743 mmHg 39%
    18:00 +9°C° 0 mm 2 mps 743 mmHg 47%
    19:00 +7°C° 0 mm 2 mps 743 mmHg 55%
    20:00 +6°C° 0 mm 2 mps 743 mmHg 63%
    21:00 +5°C° 0 mm 2 mps 743 mmHg 66%
    22:00 +5°C° 0 mm 2 mps 743 mmHg 70%
    23:00 +5°C° 0 mm 2 mps 743 mmHg 73%

    25 March, Monday

    Time Temperature Precipitation Wind Pressure Humidity
    00:00 +5°C° 0 mm 2 mps 742 mmHg 72%
    01:00 +5°C° 0 mm 2 mps 742 mmHg 70%
    02:00 +5°C° 0 mm 2 mps 742 mmHg 69%
    03:00 +4°C° 0 mm 2 mps 742 mmHg 68%
    04:00 +4°C° 0 mm 2 mps 741 mmHg 67%
    05:00 +4°C° 0 mm 2 mps 741 mmHg 67%
    06:00 +6°C° 0 mm 2 mps 741 mmHg 64%
    07:00 +7°C° 0 mm 2 mps 741 mmHg 61%
    08:00 +8°C° 0 mm 2 mps 742 mmHg 58%
    09:00 +10°C° 0 mm 2 mps 742 mmHg 53%
    10:00 +12°C° 0 mm 2 mps 742 mmHg 48%
    11:00 +14°C° 0 mm 2 mps 742 mmHg 44%
    12:00 +15°C° 0 mm 2 mps 741 mmHg 43%
    13:00 +16°C° 0 mm 2 mps 741 mmHg 41%
    14:00 +17°C° 0 mm 2 mps 741 mmHg 40%
    15:00 +13°C° 0 mm 4 mps 740 mmHg 51%
    16:00 +10°C° 0 mm 5 mps 740 mmHg 61%
    17:00 +8°C° 0 mm 7 mps 740 mmHg 71%
    18:00 +7°C° 0.3 mm 6 mps 740 mmHg 76%
    19:00 +6°C° 0.3 mm 5 mps 740 mmHg 80%
    20:00 +5°C° 0.3 mm 4 mps 740 mmHg 85%
    21:00 +5°C° 0.2 mm 4 mps 740 mmHg 87%
    22:00 +5°C° 0.2 mm 3 mps 740 mmHg 89%
    23:00 +5°C° 0.2 mm 3 mps 740 mmHg 91%

    26 March, Tuesday

    Time Temperature Precipitation Wind Pressure Humidity
    00:00 +5°C° 0.2 mm 3 mps 740 mmHg 92%
    01:00 +6°C° 0.2 mm 2 mps 740 mmHg 92%
    02:00 +6°C° 0.2 mm 2 mps 740 mmHg 93%
    03:00 +7°C° 0.6 mm 1 mps 739 mmHg 93%
    04:00 +7°C° 0.6 mm 1 mps 739 mmHg 93%
    05:00 +7°C° 0.6 mm 1 mps 739 mmHg 94%
    06:00 +7°C° 0.5 mm 1 mps 739 mmHg 93%
    07:00 +7°C° 0.5 mm 1 mps 739 mmHg 93%
    08:00 +7°C° 0.5 mm 1 mps 739 mmHg 92%
    09:00 +7°C° 0.8 mm 1 mps 739 mmHg 91%
    10:00 +6°C° 0.8 mm 2 mps 739 mmHg 90%
    11:00 +6°C° 0.8 mm 2 mps 739 mmHg 89%
    12:00 +6°C° 0.5 mm 2 mps 738 mmHg 87%
    13:00 +5°C° 0.5 mm 3 mps 738 mmHg 85%
    14:00 +7°C° 0.5 mm 3 mps 738 mmHg 83%
    15:00 +7°C° 0.2 mm 3 mps 737 mmHg 82%
    16:00 +7°C° 0.2 mm 3 mps 737 mmHg 82%
    17:00 +6°C° 0.2 mm 4 mps 737 mmHg 81%
    18:00 +5°C° 0.3 mm 3 mps 738 mmHg 85%
    19:00 +5°C° 0.3 mm 3 mps 738 mmHg 88%
    20:00 +4°C° 0.3 mm 3 mps 738 mmHg 92%
    21:00 +4°C° 0.3 mm 3 mps 738 mmHg 92%
    22:00 +4°C° 0.3 mm 3 mps 739 mmHg 93%
    23:00 +4°C° 0.3 mm 3 mps 739 mmHg 94%

    27 March, Wednesday

    Time Temperature Precipitation Wind Pressure Humidity
    00:00 +4°C° 0.6 mm 4 mps 739 mmHg 93%
    01:00 +4°C° 0.6 mm 4 mps 739 mmHg 92%
    02:00 +3°C° 0.6 mm 5 mps 739 mmHg 91%
    03:00 +3°C° 1 mm 6 mps 740 mmHg 90%
    04:00 +3°C° 1 mm 7 mps 740 mmHg 88%
    05:00 +3°C° 1 mm 7 mps 740 mmHg 87%
    06:00 +4°C° 0.3 mm 7 mps 740 mmHg 84%
    07:00 +4°C° 0.3 mm 8 mps 741 mmHg 81%
    08:00 +4°C° 0.3 mm 8 mps 741 mmHg 79%
    09:00 +5°C° 0.1 mm 8 mps 742 mmHg 74%
    10:00 +5°C° 0.1 mm 8 mps 742 mmHg 70%
    11:00 +6°C° 0.1 mm 8 mps 743 mmHg 65%
    12:00 +6°C° 0.1 mm 8 mps 743 mmHg 62%
    13:00 +7°C° 0.1 mm 8 mps 743 mmHg 59%
    14:00 +7°C° 0.1 mm 8 mps 743 mmHg 56%
    15:00 +8°C° 0 mm 7 mps 743 mmHg 57%
    16:00 +8°C° 0 mm 7 mps 743 mmHg 58%
    17:00 +8°C° 0 mm 6 mps 743 mmHg 59%
    18:00 +7°C° 0 mm 5 mps 744 mmHg 62%
    19:00 +6°C° 0 mm 5 mps 744 mmHg 65%
    20:00 +5°C° 0 mm 4 mps 744 mmHg 68%
    21:00 +5°C° 0 mm 4 mps 745 mmHg 67%
    22:00 +3°C° 0 mm 5 mps 745 mmHg 65%
    23:00 +3°C° 0 mm 5 mps 745 mmHg 64%
    Show more